Location: Grand Rapids
(42.9630°N, 85.6680°W)
Time: 01:43:06
(UTC-04:00)

Transit 2A Rocket - All Passes

Search period start: 30 May 2024 00:00
Search period end: 09 June 2024 00:00
Orbit: 584 x 909 km, 66.7° (Epoch: 29 May)

Date Brightness Start Highest point End Pass type
(mag) Time Alt. Az. Time Alt. Az. Time Alt. Az.
30 May - 02:03:22 10° SE 02:05:20 12° ESE 02:07:23 10° ENE visible
30 May - 03:42:05 10° SSW 03:46:53 81° WNW 03:52:14 10° NNE visible
30 May - 05:27:11 10° WNW 05:30:22 16° NW 05:33:43 10° N visible
30 May - 10:41:51 10° N 10:46:18 22° NE 10:50:52 10° E daylight
30 May - 12:23:34 10° NNW 12:29:34 87° WSW 12:35:40 10° SSE daylight
30 May - 14:08:10 10° WNW 14:11:19 15° WSW 14:14:28 10° SW daylight
31 May - 02:58:15 10° SSW 03:02:55 57° ESE 03:08:05 10° NE visible
31 May - 04:41:48 10° W 04:45:51 24° NW 04:50:13 10° N visible
31 May - 09:58:24 10° N 10:01:44 15° NE 10:05:07 10° ENE daylight
31 May - 11:39:34 10° NNW 11:45:29 59° NE 11:51:29 10° SE daylight
31 May - 13:22:50 10° NW 13:27:39 25° WSW 13:32:29 10° SSW daylight
01 Jun - 02:14:56 10° S 02:19:07 31° ESE 02:23:40 10° NE visible
01 Jun - 03:56:55 10° WSW 04:01:28 37° NW 04:06:29 10° NNE visible
01 Jun - 09:15:39 10° NNE 09:17:01 11° NNE 09:18:23 10° NE daylight
01 Jun - 10:55:43 10° NNW 11:01:14 38° NE 11:06:52 10° ESE daylight
01 Jun - 12:38:14 10° NW 12:43:52 42° WSW 12:49:30 10° S daylight
02 Jun - 01:32:22 10° SE 01:35:27 17° ESE 01:38:43 10° ENE visible
02 Jun - 03:12:27 10° SW 03:17:15 63° NW 03:22:36 10° NNE visible
02 Jun - 04:58:20 10° WNW 05:00:59 14° NNW 05:03:46 10° N visible
02 Jun - 10:11:59 10° NNW 10:16:53 26° NE 10:21:51 10° E daylight
02 Jun - 11:53:58 10° NW 11:59:56 70° WSW 12:05:58 10° SSE daylight
02 Jun - 13:40:06 10° W 13:41:28 11° W 13:42:50 10° WSW daylight
03 Jun - 02:28:24 10° SSW 02:33:12 75° ESE 02:38:33 10° NE visible
03 Jun - 04:12:40 10° W 04:16:23 20° NW 04:20:24 10° N visible
03 Jun - 09:28:25 10° N 09:32:22 18° NE 09:36:23 10° E daylight
03 Jun - 11:09:53 10° NNW 11:15:53 74° ENE 11:21:58 10° SE daylight
03 Jun - 12:53:40 10° WNW 12:57:51 20° WSW 13:02:03 10° SSW daylight
04 Jun - 01:44:49 10° S 01:49:18 41° ESE 01:54:17 10° NE visible
04 Jun - 03:27:33 10° WSW 03:31:57 30° NW 03:36:44 10° NNE visible
04 Jun - 08:45:11 10° N 08:47:42 13° NNE 08:50:16 10° ENE daylight
04 Jun - 10:25:58 10° NNW 10:31:43 47° NE 10:37:33 10° SE daylight
04 Jun - 12:08:48 10° NW 12:14:07 33° WSW 12:19:27 10° S daylight
05 Jun - 01:01:49 10° SSE 01:05:35 23° ESE 01:09:37 10° NE visible
05 Jun - 02:42:53 10° SW 02:47:38 49° NW 02:52:55 10° NNE visible
05 Jun - 04:29:41 10° NW 04:31:38 12° NNW 04:33:38 10° N visible
05 Jun - 09:42:10 10° NNW 09:47:25 31° NE 09:52:45 10° ESE daylight
05 Jun - 11:24:23 10° NW 11:30:16 55° WSW 11:36:09 10° S daylight
06 Jun - 00:20:03 10° SE 00:21:59 12° E 00:23:58 10° ENE visible
06 Jun - 01:58:38 10° SSW 02:03:31 84° WNW 02:08:57 10° NNE visible
06 Jun - 03:43:37 10° WNW 03:46:59 17° NW 03:50:31 10° N visible
06 Jun - 08:58:30 10° N 09:02:58 21° NE 09:07:29 10° E daylight
06 Jun - 10:40:14 10° NNW 10:46:16 89° WSW 10:52:22 10° SSE daylight
06 Jun - 12:24:43 10° WNW 12:28:01 15° WSW 12:31:19 10° SW daylight
07 Jun - 01:14:49 10° SSW 01:19:33 55° ESE 01:24:47 10° NE visible
07 Jun - 02:58:16 10° W 03:02:27 25° NW 03:06:57 10° NNE visible
07 Jun - 08:15:04 10° N 08:18:22 15° NE 08:21:44 10° ENE daylight
07 Jun - 09:56:13 10° NNW 10:02:09 58° NE 10:08:08 10° SE daylight
07 Jun - 11:39:27 10° NW 11:44:21 26° WSW 11:49:13 10° SSW daylight
08 Jun - 00:31:31 10° S 00:35:45 30° ESE 00:40:20 10° NE visible
08 Jun - 02:13:25 10° WSW 02:18:05 39° NW 02:23:12 10° NNE visible
08 Jun - 04:01:39 10° NNW 04:02:18 10° NNW 04:02:57 10° NNW visible
08 Jun - 07:32:19 10° NNE 07:33:38 11° NNE 07:34:57 10° NE daylight
08 Jun - 09:12:22 10° NNW 09:17:54 37° NE 09:23:31 10° ESE daylight
08 Jun - 10:54:52 10° NW 11:00:33 44° WSW 11:06:13 10° S daylight
08 Jun - 23:49:00 10° SE 23:52:05 17° ESE 23:55:21 10° ENE visible
